Time,TemperatureF,DewpointF,PressureIn,WindDirection,WindDirectionDegrees,WindSpeedMPH,WindSpeedGustMPH,Humidity,HourlyPrecipIn,Conditions,Clouds,dailyrainin,SolarRadiationWatts/m^2,SoftwareType,DateUTC
2013-08-03 00:04:00,55.5,47.0,31.53,North,5,1.0,4.0,72,0.00,,,0.00,0,weatherlink.com 1.10,2013-08-03 06:04:00,
2013-08-03 00:19:00,55.4,46.0,31.54,North,5,2.0,4.0,72,0.00,,,0.00,0,weatherlink.com 1.10,2013-08-03 06:19:00,
2013-08-03 00:34:00,54.9,46.0,31.54,NE,49,0.0,2.0,73,0.00,,,0.00,0,weatherlink.com 1.10,2013-08-03 06:34:00,
2013-08-03 00:49:00,55.6,46.0,31.54,NE,48,0.0,3.0,71,0.00,,,0.00,0,weatherlink.com 1.10,2013-08-03 06:49:00,
2013-08-03 01:04:00,55.7,46.0,31.54,NE,48,2.0,2.0,70,0.00,,,0.00,0,weatherlink.com 1.10,2013-08-03 07:04:00,
2013-08-03 01:19:00,54.7,46.0,31.54,NNE,23,0.0,2.0,72,0.00,,,0.00,0,weatherlink.com 1.10,2013-08-03 07:19:00,
2013-08-03 01:34:00,55.3,46.0,31.54,NNE,26,0.0,4.0,71,0.00,,,0.00,0,weatherlink.com 1.10,2013-08-03 07:34:00,
2013-08-03 01:49:00,54.6,46.0,31.54,NNW,341,0.0,2.0,74,0.00,,,0.00,0,weatherlink.com 1.10,2013-08-03 07:49:00,
2013-08-03 02:04:00,54.8,46.0,31.54,NNW,341,0.0,2.0,73,0.00,,,0.00,0,weatherlink.com 1.10,2013-08-03 08:04:00,
2013-08-03 02:19:00,53.6,46.0,31.55,SSW,192,1.0,5.0,75,0.00,,,0.00,0,weatherlink.com 1.10,2013-08-03 08:19:00,
2013-08-03 02:34:00,53.2,46.0,31.55,SSE,166,0.0,3.0,76,0.00,,,0.00,0,weatherlink.com 1.10,2013-08-03 08:34:00,
2013-08-03 02:49:00,54.1,46.0,31.55,SSE,166,0.0,0.0,74,0.00,,,0.00,0,weatherlink.com 1.10,2013-08-03 08:49:00,
2013-08-03 03:04:00,52.4,45.0,31.55,South,171,2.0,4.0,77,0.00,,,0.00,0,weatherlink.com 1.10,2013-08-03 09:04:00,
2013-08-03 03:19:00,52.2,46.0,31.55,South,169,0.0,2.0,78,0.00,,,0.00,0,weatherlink.com 1.10,2013-08-03 09:19:00,
2013-08-03 03:34:00,51.5,45.0,31.55,South,169,0.0,0.0,79,0.00,,,0.00,0,weatherlink.com 1.10,2013-08-03 09:34:00,
2013-08-03 03:49:00,51.0,45.0,31.55,South,169,3.0,3.0,80,0.00,,,0.00,0,weatherlink.com 1.10,2013-08-03 09:49:00,
2013-08-03 04:04:00,51.0,45.0,31.55,South,169,1.0,2.0,80,0.00,,,0.00,0,weatherlink.com 1.10,2013-08-03 10:04:00,
2013-08-03 04:19:00,49.9,45.0,31.55,South,169,0.0,1.0,84,0.00,,,0.00,0,weatherlink.com 1.10,2013-08-03 10:19:00,
2013-08-03 04:34:00,49.7,45.0,31.56,South,169,2.0,3.0,84,0.00,,,0.00,0,weatherlink.com 1.10,2013-08-03 10:34:00,
2013-08-03 04:49:00,49.8,46.0,31.56,South,169,0.0,3.0,86,0.00,,,0.00,0,weatherlink.com 1.10,2013-08-03 10:49:00,
2013-08-03 05:04:00,50.1,46.0,31.56,South,169,0.0,2.0,86,0.00,,,0.00,0,weatherlink.com 1.10,2013-08-03 11:04:00,
2013-08-03 05:19:00,50.3,46.0,31.57,South,169,1.0,2.0,86,0.00,,,0.00,0,weatherlink.com 1.10,2013-08-03 11:19:00,
2013-08-03 05:34:00,50.1,46.0,31.56,South,169,0.0,2.0,86,0.00,,,0.00,0,weatherlink.com 1.10,2013-08-03 11:34:00,
2013-08-03 05:49:00,49.6,45.0,31.57,South,169,0.0,2.0,85,0.00,,,0.00,0,weatherlink.com 1.10,2013-08-03 11:49:00,
2013-08-03 06:04:00,49.4,46.0,31.57,SSE,168,1.0,3.0,87,0.00,,,0.00,0,weatherlink.com 1.10,2013-08-03 12:04:00,
2013-08-03 06:19:00,48.7,45.0,31.58,SSE,168,0.0,2.0,87,0.00,,,0.00,0,weatherlink.com 1.10,2013-08-03 12:19:00,
2013-08-03 06:34:00,47.6,45.0,31.58,SSE,168,0.0,0.0,89,0.00,,,0.00,11,weatherlink.com 1.10,2013-08-03 12:34:00,
2013-08-03 06:49:00,47.8,45.0,31.58,SSE,168,0.0,1.0,90,0.00,,,0.00,19,weatherlink.com 1.10,2013-08-03 12:49:00,
2013-08-03 07:04:00,48.2,45.0,31.59,SSE,168,0.0,0.0,89,0.00,,,0.00,28,weatherlink.com 1.10,2013-08-03 13:04:00,
2013-08-03 07:19:00,49.1,46.0,31.59,SSE,168,0.0,1.0,88,0.00,,,0.00,33,weatherlink.com 1.10,2013-08-03 13:19:00,
2013-08-03 07:35:00,49.5,46.0,31.59,SSE,168,2.0,3.0,87,0.00,,,0.00,77,weatherlink.com 1.10,2013-08-03 13:35:00,
2013-08-03 07:50:00,50.0,46.0,31.59,South,169,2.0,2.0,87,0.00,,,0.00,111,weatherlink.com 1.10,2013-08-03 13:50:00,
2013-08-03 08:05:00,51.1,47.0,31.59,South,169,1.0,1.0,86,0.00,,,0.00,148,weatherlink.com 1.10,2013-08-03 14:05:00,
2013-08-03 08:20:00,52.3,47.0,31.59,South,169,0.0,1.0,82,0.00,,,0.00,188,weatherlink.com 1.10,2013-08-03 14:20:00,
2013-08-03 08:35:00,52.4,48.0,31.59,South,169,1.0,2.0,84,0.00,,,0.00,227,weatherlink.com 1.10,2013-08-03 14:35:00,
2013-08-03 08:50:00,52.4,48.0,31.59,South,169,0.0,1.0,85,0.00,,,0.00,265,weatherlink.com 1.10,2013-08-03 14:50:00,
2013-08-03 09:05:00,52.8,47.0,31.59,South,169,0.0,1.0,82,0.00,,,0.00,304,weatherlink.com 1.10,2013-08-03 15:05:00,
2013-08-03 09:20:00,53.8,48.0,31.58,South,169,0.0,2.0,82,0.00,,,0.00,350,weatherlink.com 1.10,2013-08-03 15:20:00,
2013-08-03 09:35:00,53.9,48.0,31.58,SSW,205,1.0,4.0,81,0.00,,,0.00,387,weatherlink.com 1.10,2013-08-03 15:35:00,
2013-08-03 09:50:00,54.5,49.0,31.58,SSW,208,0.0,3.0,81,0.00,,,0.00,427,weatherlink.com 1.10,2013-08-03 15:50:00,
2013-08-03 10:05:00,54.4,49.0,31.58,SW,225,0.0,5.0,81,0.00,,,0.00,468,weatherlink.com 1.10,2013-08-03 16:05:00,
2013-08-03 10:20:00,55.9,50.0,31.57,SW,226,3.0,5.0,79,0.00,,,0.00,508,weatherlink.com 1.10,2013-08-03 16:20:00,
2013-08-03 10:35:00,56.5,49.0,31.56,SW,216,3.0,6.0,75,0.00,,,0.00,631,weatherlink.com 1.10,2013-08-03 16:35:00,
2013-08-03 10:50:00,58.4,50.0,31.55,SW,214,0.0,5.0,73,0.00,,,0.00,584,weatherlink.com 1.10,2013-08-03 16:50:00,
2013-08-03 11:05:00,58.8,49.0,31.54,SW,217,3.0,5.0,69,0.00,,,0.00,617,weatherlink.com 1.10,2013-08-03 17:05:00,
2013-08-03 11:20:00,60.0,49.0,31.54,SW,216,5.0,7.0,68,0.00,,,0.00,650,weatherlink.com 1.10,2013-08-03 17:20:00,
2013-08-03 11:36:00,60.2,49.0,31.54,SW,226,0.0,12.0,67,0.00,,,0.00,682,weatherlink.com 1.10,2013-08-03 17:36:00,
2013-08-03 11:51:00,61.5,50.0,31.53,West,274,4.0,5.0,66,0.00,,,0.00,714,weatherlink.com 1.10,2013-08-03 17:51:00,
2013-08-03 12:06:00,63.4,50.0,31.52,WNW,287,4.0,5.0,63,0.00,,,0.00,742,weatherlink.com 1.10,2013-08-03 18:06:00,
2013-08-03 12:21:00,63.7,50.0,31.52,NNW,347,5.0,7.0,62,0.00,,,0.00,763,weatherlink.com 1.10,2013-08-03 18:21:00,
2013-08-03 12:36:00,65.1,50.0,31.51,NNW,341,2.0,7.0,59,0.00,,,0.00,793,weatherlink.com 1.10,2013-08-03 18:36:00,
2013-08-03 12:51:00,65.4,49.0,31.51,WNW,302,1.0,7.0,56,0.00,,,0.00,1027,weatherlink.com 1.10,2013-08-03 18:51:00,
2013-08-03 13:06:00,65.6,48.0,31.50,NW,313,0.0,7.0,54,0.00,,,0.00,835,weatherlink.com 1.10,2013-08-03 19:06:00,
2013-08-03 13:21:00,67.6,49.0,31.50,WNW,300,0.0,9.0,51,0.00,,,0.00,1118,weatherlink.com 1.10,2013-08-03 19:21:00,
2013-08-03 13:36:00,66.1,48.0,31.50,WNW,293,4.0,7.0,53,0.00,,,0.00,306,weatherlink.com 1.10,2013-08-03 19:36:00,
2013-08-03 13:51:00,67.3,45.0,31.49,NW,320,2.0,6.0,44,0.00,,,0.00,494,weatherlink.com 1.10,2013-08-03 19:51:00,
2013-08-03 14:06:00,68.3,46.0,31.49,NNW,339,2.0,7.0,45,0.00,,,0.00,385,weatherlink.com 1.10,2013-08-03 20:06:00,
2013-08-03 14:21:00,68.8,46.0,31.49,WNW,296,5.0,9.0,44,0.00,,,0.00,436,weatherlink.com 1.10,2013-08-03 20:21:00,
2013-08-03 14:36:00,69.0,45.0,31.49,NW,325,3.0,6.0,43,0.00,,,0.00,462,weatherlink.com 1.10,2013-08-03 20:36:00,
2013-08-03 14:51:00,70.1,46.0,31.49,NW,317,4.0,11.0,42,0.00,,,0.00,424,weatherlink.com 1.10,2013-08-03 20:51:00,
2013-08-03 15:21:00,69.5,47.0,31.49,North,5,13.0,19.0,44,0.00,,,0.00,308,weatherlink.com 1.10,2013-08-03 21:21:00,
2013-08-03 15:36:00,67.9,46.0,31.49,North,350,11.0,12.0,46,0.00,,,0.00,308,weatherlink.com 1.10,2013-08-03 21:36:00,
2013-08-03 15:51:00,70.6,48.0,31.48,NW,319,8.0,13.0,44,0.00,,,0.00,972,weatherlink.com 1.10,2013-08-03 21:51:00,
2013-08-03 16:06:00,69.9,46.0,31.48,NNE,14,5.0,9.0,42,0.00,,,0.00,323,weatherlink.com 1.10,2013-08-03 22:06:00,
2013-08-03 16:21:00,68.9,45.0,31.48,North,355,3.0,10.0,43,0.00,,,0.00,206,weatherlink.com 1.10,2013-08-03 22:21:00,
2013-08-03 16:36:00,68.6,46.0,31.48,NNE,15,4.0,8.0,44,0.00,,,0.00,283,weatherlink.com 1.10,2013-08-03 22:36:00,
2013-08-03 17:06:00,68.6,46.0,31.47,NNE,24,4.0,11.0,44,0.00,,,0.00,287,weatherlink.com 1.10,2013-08-03 23:06:00,
2013-08-03 17:21:00,69.0,46.0,31.47,North,11,4.0,11.0,44,0.00,,,0.00,232,weatherlink.com 1.10,2013-08-03 23:21:00,
2013-08-03 17:36:00,67.9,47.0,31.46,NNE,18,8.0,16.0,48,0.00,,,0.00,197,weatherlink.com 1.10,2013-08-03 23:36:00,
2013-08-03 17:51:00,68.4,47.0,31.46,NNE,20,4.0,15.0,46,0.00,,,0.00,192,weatherlink.com 1.10,2013-08-03 23:51:00,
2013-08-03 18:06:00,68.5,48.0,31.46,NNE,17,6.0,9.0,48,0.00,,,0.00,550,weatherlink.com 1.10,2013-08-04 00:06:00,
2013-08-03 18:21:00,70.1,48.0,31.46,NNW,334,9.0,12.0,45,0.00,,,0.00,506,weatherlink.com 1.10,2013-08-04 00:21:00,
2013-08-03 18:36:00,70.0,48.0,31.45,North,360,5.0,11.0,45,0.00,,,0.00,429,weatherlink.com 1.10,2013-08-04 00:36:00,
2013-08-03 18:52:00,70.5,46.0,31.45,North,5,1.0,9.0,41,0.00,,,0.00,381,weatherlink.com 1.10,2013-08-04 00:52:00,
2013-08-03 19:37:00,68.4,47.0,31.45,NNE,18,8.0,13.0,47,0.00,,,0.00,248,weatherlink.com 1.10,2013-08-04 01:37:00,
2013-08-03 19:52:00,68.0,47.0,31.45,North,360,10.0,12.0,47,0.00,,,0.00,202,weatherlink.com 1.10,2013-08-04 01:52:00,
2013-08-03 20:07:00,67.6,47.0,31.45,North,9,10.0,13.0,47,0.00,,,0.00,160,weatherlink.com 1.10,2013-08-04 02:07:00,
2013-08-03 20:22:00,66.8,47.0,31.46,North,360,2.0,8.0,50,0.00,,,0.00,114,weatherlink.com 1.10,2013-08-04 02:22:00,
2013-08-03 20:37:00,66.6,47.0,31.45,North,5,2.0,11.0,49,0.00,,,0.00,67,weatherlink.com 1.10,2013-08-04 02:37:00,
2013-08-03 20:52:00,65.9,47.0,31.45,NNE,19,4.0,6.0,50,0.00,,,0.00,23,weatherlink.com 1.10,2013-08-04 02:52:00,
2013-08-03 21:07:00,64.9,46.0,31.46,NNE,13,6.0,11.0,51,0.00,,,0.00,9,weatherlink.com 1.10,2013-08-04 03:07:00,
2013-08-03 21:22:00,64.3,47.0,31.46,North,5,8.0,9.0,53,0.00,,,0.00,0,weatherlink.com 1.10,2013-08-04 03:22:00,
2013-08-03 21:36:00,63.9,46.0,31.46,NNE,21,2.0,7.0,53,0.00,,,0.00,0,weatherlink.com 1.10,2013-08-04 03:36:00,
2013-08-03 21:51:00,63.6,46.0,31.46,North,360,4.0,7.0,53,0.00,,,0.00,0,weatherlink.com 1.10,2013-08-04 03:51:00,
2013-08-03 22:06:00,63.2,46.0,31.47,NNE,29,1.0,7.0,54,0.00,,,0.00,0,weatherlink.com 1.10,2013-08-04 04:06:00,
2013-08-03 22:22:00,62.7,46.0,31.47,NNE,22,0.0,7.0,54,0.00,,,0.00,0,weatherlink.com 1.10,2013-08-04 04:22:00,
2013-08-03 22:37:00,63.0,46.0,31.48,NE,46,3.0,8.0,54,0.00,,,0.00,0,weatherlink.com 1.10,2013-08-04 04:37:00,
2013-08-03 22:51:00,62.5,46.0,31.48,NE,42,2.0,6.0,55,0.00,,,0.00,0,weatherlink.com 1.10,2013-08-04 04:51:00,
2013-08-03 23:07:00,61.9,46.0,31.48,NE,34,0.0,5.0,56,0.00,,,0.00,0,weatherlink.com 1.10,2013-08-04 05:07:00,
2013-08-03 23:22:00,61.1,46.0,31.48,NNE,23,0.0,4.0,58,0.00,,,0.00,0,weatherlink.com 1.10,2013-08-04 05:22:00,
2013-08-03 23:37:00,60.7,46.0,31.48,NNE,29,0.0,3.0,59,0.00,,,0.00,0,weatherlink.com 1.10,2013-08-04 05:37:00,
2013-08-03 23:52:00,60.8,46.0,31.48,NE,38,4.0,8.0,59,0.00,,,0.00,0,weatherlink.com 1.10,2013-08-04 05:52:00,